Wetbulb
56.97 59.21 63.17 65.63 67.03 67.59 64.58 64.90 64.71 63.84 60.04 58.80 57.29 57.48 59.52 59.50 58.89 58.82 58.32 57.99 57.48 57.45 56.69 56.15 55.88 55.12 54.93 54.45 55.29 56.69 56.16 54.79
58.91 59.51 60.93 62.90 65.07 65.90 64.01 63.56 63.31 61.61 58.13 55.72 54.89 54.46 57.24 57.25 57.70 57.63 56.48 56.59 56.57 56.61 55.87 55.26 55.03 54.17 54.41 54.43 54.70 55.31 54.08 53.73
57.84 59.14 59.45 60.30 62.13 64.24 62.83 62.27 61.74 59.24 56.43 55.20 55.07 55.55 56.65 56.37 55.81 55.19 54.62 54.70 55.46 55.02 54.56 53.93 53.50 53.40 53.77 53.51 54.11 53.55 52.97 52.93
56.91 58.25 59.84 61.53 60.60 61.53 60.46 60.69 58.12 56.49 54.57 53.39 52.87 52.29 51.58 50.99 50.71 51.00 50.88 51.41 52.11 52.55 52.07 52.50 52.51 52.67 51.58 52.48 53.06 52.60 50.25 52.20
56.15 57.25 58.17 59.29 59.67 60.10 58.96 55.53 54.06 52.26 50.75 49.10 47.44 47.40 45.74 47.76 47.39 47.97 47.01 47.14 47.64 47.73 48.99 48.61 49.22 50.65 50.25 51.15 52.69 51.98 51.62 49.33
53.50 55.03 56.39 57.80 58.09 56.64 55.66 52.09 49.68 49.55 49.42 48.77 45.33 43.94 44.09 43.70 44.67 43.80 43.73 44.18 44.91 45.00 45.43 45.77 47.17 47.54 49.93 50.26 50.28 51.72 52.33 50.55
52.32 51.82 53.43 54.45 55.66 55.20 54.65 52.54 50.19 48.72 47.58 47.00 46.23 45.58 44.58 44.13 43.66 43.36 43.03 44.81 43.72 44.45 44.82 44.14 44.79 45.09 46.03 47.09 48.00 48.38 49.95 51.25
53.68 53.11 52.89 52.02 52.83 53.74 54.67 53.52 51.57 50.85 50.56 49.44 48.27 47.64 46.70 45.64 45.43 44.88 45.71 43.86 42.64 42.84 43.44 43.39 43.20 44.46 45.09 45.84 46.06 47.10 48.79 47.85
51.29 53.42 53.78 53.67 53.88 54.45 54.78 54.07 53.71 53.60 53.52 53.41 53.15 50.67 49.27 49.59 49.71 50.30 47.93 43.65 42.90 43.90 43.78 43.06 43.08 42.82 43.07 44.21 44.24 44.78 45.22 46.65
50.49 51.82 53.89 54.68 54.41 54.28 55.53 54.55 54.35 54.46 54.14 54.07 53.10 52.35 50.34 50.26 49.81 45.92 46.16 44.28 43.14 43.50 42.93 42.11 41.85 42.34 42.31 42.57 41.97 41.66 43.72 44.65
49.35 49.74 50.62 53.43 54.96 55.53 56.45 56.84 55.25 55.22 55.44 55.09 54.65 53.51 52.52 49.37 46.50 44.91 44.47 43.70 43.89 43.28 42.50 42.66 41.50 41.24 41.68 42.14 41.70 41.97 42.09 43.07
48.45 49.53 50.42 51.35 53.50 55.30 56.21 56.27 54.84 55.36 55.57 54.49 54.41 53.48 51.72 50.54 47.38 46.41 43.66 42.50 41.95 42.23 42.29 41.85 40.56 40.75 41.38 41.16 41.09 41.23 41.35 41.62
48.05 48.76 49.68 50.59 51.69 53.79 55.18 55.84 55.00 55.11 54.01 54.38 53.13 52.01 50.72 48.21 48.10 46.66 43.47 41.31 41.41 41.28 41.82 40.90 39.96 39.64 40.13 40.70 39.64 40.24 40.63 40.61
47.59 48.39 49.61 49.70 50.40 51.13 51.97 53.17 54.20 54.95 54.76 52.82 51.56 50.59 49.49 48.59 47.93 47.58 45.19 41.71 40.22 40.15 40.88 40.03 39.47 38.64 37.94 39.44 39.80 40.32 40.69 41.05
46.93 48.26 49.54 48.53 49.45 49.77 50.35 50.96 51.85 51.09 51.74 51.99 51.21 51.80 49.92 48.97 48.37 47.26 46.36 44.26 40.54 41.14 39.71 39.04 39.76 38.91 39.51 39.45 39.05 39.71 40.16 40.51
46.56 47.67 47.62 47.74 48.24 49.58 50.35 50.86 51.36 51.77 51.25 51.38 50.96 51.30 50.38 48.83 47.84 47.93 46.58 44.63 43.62 41.27 38.81 38.83 38.42 38.52 37.84 37.75 37.14 38.46 39.43 39.08
46.66 46.83 46.04 46.46 47.38 48.34 48.82 50.03 51.51 51.60 50.98 51.07 51.67 51.52 49.45 48.64 48.09 48.20 46.76 44.01 42.54 38.80 38.19 39.15 36.14 36.44 35.78 36.20 36.58 36.94 37.05 36.90
46.42 45.92 46.30 47.50 48.14 48.14 48.03 48.75 50.66 51.09 50.79 50.86 50.56 49.52 47.80 47.46 47.74 47.21 45.91 42.98 40.20 36.30 36.32 37.58 35.76 34.00 35.00 34.61 34.36 36.18 34.62 36.59
46.77 46.74 47.11 48.02 48.52 49.17 50.53 50.56 49.83 50.54 49.79 49.53 48.76 47.26 46.14 46.17 44.60 43.11 42.54 40.40 37.40 37.62 35.41 35.74 35.50 35.16 34.90 34.91 33.72 36.02 35.69 35.88
MSLP
1006.54 1006.64 1006.82 1007.25 1007.53 1007.99 1009.75 1010.17 1010.79 1011.70 1012.54 1013.13 1013.60 1013.83 1013.92 1014.18 1014.56 1014.81 1015.43 1015.94 1016.42 1016.47 1016.32 1016.57 1017.11 1017.36 1017.54 1017.62 1018.12 1018.49 1019.00 1019.51
1006.77 1007.07 1007.15 1007.25 1007.69 1008.34 1009.36 1010.08 1010.76 1011.81 1012.48 1012.83 1013.20 1013.51 1013.71 1014.12 1014.29 1014.89 1015.64 1015.76 1016.22 1016.39 1016.34 1017.04 1016.92 1016.84 1017.03 1017.57 1017.95 1018.18 1019.06 1019.79
1007.26 1007.40 1007.42 1007.71 1008.13 1008.55 1009.46 1010.19 1010.74 1011.59 1012.30 1012.62 1012.76 1013.08 1013.49 1014.05 1014.55 1015.34 1015.92 1016.12 1016.39 1016.50 1016.59 1016.89 1017.06 1017.01 1017.42 1017.49 1017.89 1018.19 1018.71 1019.24
1007.79 1007.91 1007.98 1007.98 1008.39 1008.81 1009.73 1010.37 1011.33 1012.06 1012.66 1013.02 1013.07 1013.37 1014.11 1014.56 1014.98 1015.52 1016.19 1016.65 1017.02 1017.13 1017.18 1016.99 1017.24 1017.27 1017.51 1017.72 1017.77 1017.92 1018.58 1018.90
1009.03 1008.91 1009.03 1009.18 1009.67 1010.06 1010.51 1011.27 1012.03 1012.76 1013.07 1013.51 1013.97 1014.01 1014.57 1014.74 1015.59 1015.88 1016.53 1017.02 1017.17 1017.63 1017.88 1017.98 1017.87 1017.46 1017.75 1017.95 1017.93 1018.17 1018.34 1018.62
1010.25 1010.11 1010.21 1010.20 1010.37 1010.73 1011.18 1011.98 1012.69 1013.00 1013.32 1013.70 1014.27 1014.74 1015.20 1015.39 1015.47 1016.32 1017.15 1017.82 1016.91 1017.76 1018.72 1018.57 1018.49 1018.01 1017.66 1017.57 1018.15 1018.17 1018.04 1018.20
1010.74 1011.24 1011.04 1011.16 1011.45 1011.22 1011.21 1011.87 1012.40 1012.94 1013.22 1013.57 1013.76 1014.20 1014.80 1015.12 1015.30 1015.63 1016.15 1016.54 1016.71 1016.80 1016.76 1018.73 1018.80 1018.80 1018.16 1017.70 1018.19 1018.64 1018.10 1018.16
1009.85 1010.30 1010.74 1011.23 1011.51 1011.75 1011.41 1011.44 1011.65 1011.62 1011.77 1011.96 1011.98 1012.18 1012.74 1013.24 1013.97 1014.46 1015.32 1015.85 1017.51 1017.17 1017.43 1017.50 1018.48 1018.62 1017.52 1017.67 1017.99 1018.45 1018.32 1017.96
1009.31 1009.62 1009.98 1010.41 1010.81 1011.07 1010.92 1010.94 1010.97 1011.09 1011.14 1011.39 1011.90 1012.31 1012.79 1013.44 1012.86 1013.28 1014.61 1015.34 1015.62 1016.79 1017.48 1017.98 1018.64 1018.24 1017.77 1017.57 1018.15 1018.28 1018.58 1018.48
1008.60 1008.72 1009.24 1009.47 1009.47 1009.75 1009.89 1009.88 1010.12 1010.64 1010.91 1011.30 1011.74 1012.19 1012.63 1012.71 1013.15 1014.09 1014.58 1015.11 1015.40 1016.81 1017.39 1018.08 1018.19 1017.69 1017.80 1017.96 1018.06 1018.13 1018.59 1018.64
1007.93 1007.91 1007.93 1007.99 1008.81 1009.19 1009.20 1009.22 1009.38 1009.63 1009.78 1010.09 1010.64 1011.46 1012.14 1012.45 1013.00 1013.66 1014.23 1014.92 1015.73 1016.77 1017.24 1017.55 1018.03 1017.48 1018.01 1017.75 1018.23 1018.33 1018.56 1018.70
1007.33 1007.51 1007.64 1007.38 1007.64 1008.29 1008.73 1008.82 1009.19 1009.22 1009.13 1009.45 1010.23 1011.21 1011.99 1012.36 1012.73 1013.21 1013.73 1014.61 1015.40 1015.99 1016.62 1017.17 1017.38 1017.92 1017.52 1017.95 1018.16 1018.57 1018.69 1018.58
1006.98 1007.13 1007.12 1007.18 1007.53 1007.47 1007.63 1008.01 1008.53 1009.03 1009.22 1009.16 1009.88 1010.81 1011.63 1012.25 1012.45 1012.78 1013.57 1014.19 1014.98 1015.36 1016.03 1016.75 1017.18 1017.51 1017.47 1018.10 1018.57 1018.69 1018.77 1018.82
1006.95 1006.90 1007.10 1007.26 1007.55 1007.80 1007.76 1007.71 1007.85 1008.17 1008.82 1009.47 1009.76 1010.06 1010.97 1011.49 1012.17 1012.63 1012.97 1014.02 1014.58 1014.96 1015.15 1015.92 1017.01 1017.80 1017.65 1018.45 1018.84 1018.77 1019.07 1019.35
1006.62 1006.77 1007.13 1007.81 1007.60 1007.84 1007.61 1007.66 1007.89 1008.18 1008.13 1008.69 1009.07 1009.34 1009.16 1010.15 1011.22 1011.88 1012.06 1012.64 1013.75 1014.31 1015.24 1015.60 1016.47 1017.56 1018.17 1018.61 1018.85 1018.90 1019.39 1019.64
1006.46 1006.63 1006.79 1007.08 1007.35 1007.79 1007.52 1007.35 1007.43 1007.53 1007.65 1007.99 1008.29 1008.64 1009.11 1009.49 1010.01 1010.86 1011.47 1011.41 1012.31 1014.05 1015.23 1016.00 1016.61 1017.24 1018.20 1018.73 1019.12 1018.96 1019.29 1019.74
1006.29 1006.58 1006.71 1006.77 1006.86 1007.10 1007.12 1006.83 1006.92 1007.02 1006.99 1007.06 1007.21 1007.54 1008.16 1008.75 1009.34 1009.84 1010.75 1011.50 1012.37 1013.61 1014.68 1015.14 1016.27 1017.00 1017.77 1018.57 1019.22 1019.16 1019.41 1019.84
1006.15 1006.45 1006.59 1006.50 1006.53 1006.67 1006.47 1006.32 1006.39 1006.43 1006.46 1006.40 1006.53 1007.00 1007.61 1008.20 1008.65 1009.14 1009.82 1010.90 1011.97 1012.97 1013.79 1014.97 1015.92 1017.11 1017.99 1018.59 1018.82 1019.75 1020.32 1020.42
1006.31 1006.22 1006.23 1006.35 1006.42 1006.33 1006.16 1005.92 1005.81 1005.99 1006.15 1006.25 1006.57 1007.05 1007.51 1008.05 1008.61 1009.05 1009.57 1010.68 1011.64 1012.48 1013.73 1014.76 1015.69 1016.88 1017.66 1018.24 1019.05 1019.72 1020.06 1020.62
Wind_Speed
9 9 8 11 12 11 13 12 15 14 9 8 7 7 8 8 8 8 12 10 11 10 8 10 10 9 9 9 10 9 9 10
8 9 7 7 10 11 11 12 13 10 9 10 9 9 9 7 7 9 10 9 11 11 8 9 10 10 11 12 11 14 11 11
9 10 8 3 6 8 9 8 9 12 9 8 7 8 8 7 6 6 7 8 9 8 8 9 10 8 10 13 13 11 11 13
9 10 11 7 3 3 4 5 6 8 7 4 4 5 4 5 6 6 4 3 4 6 6 6 8 8 9 12 13 14 12 12
10 10 11 10 8 6 4 5 5 5 8 6 7 4 6 3 3 5 6 5 3 2 2 4 6 5 8 9 9 10 10 11
8 10 10 8 6 6 6 8 8 8 9 8 7 7 6 4 7 7 6 3 7 5 3 2 4 5 8 10 10 11 10 10
5 3 4 4 3 3 6 8 9 11 11 12 12 11 10 8 8 6 6 6 4 8 11 4 3 5 6 6 8 9 7 8
6 4 4 3 3 5 7 9 13 16 17 18 18 18 19 17 13 9 12 9 6 6 7 8 6 9 7 7 7 8 9 8
4 1 6 7 8 9 11 12 14 15 15 15 12 11 7 8 14 12 10 9 8 9 10 9 9 6 6 7 6 6 5 7
8 8 9 10 13 15 15 15 14 13 12 10 12 11 10 7 7 9 7 7 7 10 11 10 10 9 8 8 6 7 7 6
16 16 16 12 12 13 14 15 14 12 12 10 9 10 11 10 8 10 9 8 12 14 14 10 9 8 9 8 6 7 7 7
17 15 14 12 10 12 14 15 14 13 12 7 5 7 10 11 10 9 10 10 12 13 12 11 10 10 8 6 6 7 8 8
16 16 15 9 9 11 12 13 13 12 11 10 8 7 7 9 11 13 11 11 11 12 13 11 9 8 8 8 8 8 8 8
17 14 10 7 3 6 8 8 10 11 8 9 10 12 12 13 13 14 15 14 13 11 12 11 9 9 8 6 7 8 8 8
14 11 4 4 3 5 5 6 7 9 9 11 13 15 13 12 12 14 16 16 14 14 10 12 11 9 10 11 9 8 8 7
13 9 6 5 3 5 5 6 7 7 9 12 14 14 13 13 13 15 15 15 16 14 13 12 10 11 8 9 7 9 9 8
10 7 6 5 5 6 7 7 6 6 8 10 10 11 13 14 14 16 16 16 16 16 14 16 13 7 14 14 11 8 6 9
7 6 7 7 9 9 11 11 9 8 9 9 8 9 11 11 13 14 15 15 15 14 14 13 13 9 18 16 14 9 9 5
8 6 7 8 10 12 12 11 10 8 8 7 6 7 9 11 11 11 11 13 14 14 13 13 12 10 17 16 15 9 7 8
Wind_Direction
351 319 261 242 239 224 212 220 211 198 185 184 176 181 198 195 199 199 180 193 196 205 191 173 184 183 178 175 178 169 159 146
11 359 322 255 241 230 200 221 207 192 189 185 178 186 195 193 199 191 188 190 195 203 195 188 196 188 183 175 173 165 155 149
20 21 23 324 265 237 234 230 195 191 202 192 182 185 192 191 195 183 197 195 200 207 210 197 201 192 184 176 175 163 161 163
25 25 32 36 26 272 252 212 161 204 205 147 123 98 116 174 179 173 178 194 207 230 207 214 198 193 184 180 177 177 171 181
31 27 34 38 37 46 104 109 163 150 131 124 139 158 157 127 106 72 88 65 75 45 337 188 188 202 179 186 186 180 180 182
24 25 18 30 45 80 113 124 133 133 132 132 116 99 104 120 125 124 124 118 113 75 338 252 216 212 192 181 187 202 197 190
106 83 28 30 31 126 148 158 156 146 142 149 150 156 164 167 160 174 157 162 198 168 157 255 230 208 186 172 185 206 205 205
75 88 113 165 211 223 205 195 192 188 185 184 181 180 180 184 176 171 171 161 192 185 181 169 209 208 175 164 177 195 201 192
20 263 189 202 212 219 214 218 227 214 208 207 206 191 179 204 183 184 188 182 165 171 187 195 209 188 168 158 171 174 180 197
315 302 269 234 213 213 215 210 212 215 219 210 205 208 201 213 178 180 182 167 148 180 190 189 190 175 173 166 166 155 176 169
308 305 303 265 248 246 227 225 218 220 222 216 207 206 208 191 160 184 170 168 176 184 186 186 187 167 176 166 161 163 163 164
312 310 306 295 283 243 241 230 240 250 246 228 221 232 221 212 193 188 169 165 170 173 175 177 172 181 163 171 171 174 175 162
311 310 310 301 286 258 242 242 238 241 270 253 203 194 218 219 215 185 168 166 169 162 168 174 174 170 157 177 181 179 182 173
314 312 316 310 277 269 266 263 260 250 238 232 205 193 213 212 206 199 179 171 167 165 161 162 166 168 150 182 197 184 190 194
306 309 309 283 284 251 262 263 247 245 234 222 224 223 211 190 199 203 187 172 169 166 166 160 167 164 188 178 194 186 196 204
302 291 299 303 285 275 268 269 256 245 239 233 237 228 219 200 192 205 195 177 171 172 161 160 160 165 181 179 189 195 191 191
286 276 304 317 339 326 317 302 284 258 249 248 245 232 221 209 193 198 189 179 171 164 164 162 158 166 160 167 185 191 197 187
268 282 304 333 330 322 311 310 302 283 277 270 254 245 232 218 206 196 185 182 166 160 158 166 152 151 159 160 158 177 184 199
286 273 312 327 324 319 312 305 295 281 279 280 267 232 217 208 201 189 183 176 172 166 164 162 155 165 172 172 168 179 179 182